This demonstration page uses our WeatherBlox Daily Observations layout. Learn more.

39.01783, -85.05884

Hourly Observations for May 17, 2019

Temp ( °F °C ) Dew Point ( °F °C ) Humidity (%) Winds ( mph kmh ) Pressure ( in mb ) Visibility ( mi km ) Precip ( " mm )
12:52 am 00:52 Cloudy 62 16.7 59 15 90 90 S 10 17 29.78 1009 10 16.0934 0 0
1:52 am 01:52 Cloudy 62 16.7 58 14.4 86 86 S 12 19 29.78 1009 10 16.0934 0 0
2:52 am 02:52 Cloudy 62 16.7 58 14.4 86 86 SSW 12 19 29.78 1009 10 16.0934 0 0
3:52 am 03:52 Cloudy 63 17.2 59 15 87 87 SSW 13 20 29.78 1008 10 16.0934 0 0
4:52 am 04:52 Cloudy 64 17.8 60 15.6 87 87 SW 10 17 29.8 1009 10 16.0934 0 0
5:52 am 05:52 Cloudy 64 17.8 60 15.6 87 87 WSW 6 9 29.81 1010 10 16.0934 0 0
6:52 am 06:52 Cloudy 64 17.8 61 16.1 90 90 S 5 7 29.83 1010 10 16.0934 0 0
7:52 am 07:52 Cloudy 65 18.3 61 16.1 87 87 S 6 9 29.83 1010 9 14.48406 0 0
8:52 am 08:52 Mostly Cloudy 69 20.6 63 17.2 81 81 SW 5 7 29.83 1010 10 16.0934 0 0
9:52 am 09:52 Mostly Cloudy 72 22.2 64 17.8 76 76 SW 7 11 29.84 1010 10 16.0934 0 0
10:52 am 10:52 Mostly Cloudy 76 24.4 65 18.3 69 69 WSW 7 11 29.84 1011 10 16.0934 0 0
11:52 am 11:52 Mostly Cloudy 80 26.7 66 18.9 62 62 W 9 15 29.86 1011 10 16.0934 0 0
12:52 pm 12:52 Mostly Cloudy 82 27.8 63 17.2 53 53 W 12 19 29.86 1011 10 16.0934 0 0
1:52 pm 13:52 Partly Cloudy 84 28.9 62 16.7 48 48 WNW 13 20 29.85 1011 10 16.0934 0 0
2:52 pm 14:52 Cloudy 83 28.3 62 16.7 49 49 W 16 26 29.87 1011 10 16.0934 0 0
3:52 pm 15:52 Mostly Cloudy 85 29.4 64 17.8 50 50 WNW 14 22 29.85 1011 10 16.0934 0 0
4:32 pm 16:32 Mostly Cloudy with Thunderstorms 84 28.9 65 18.3 53 53 NW 10 17 29.82 1010 10 16.0934 0 0
4:52 pm 16:52 Cloudy with Thunderstorms 82 27.8 64 17.8 55 55 WNW 9 15 29.84 1011 10 16.0934 0 0
5:30 pm 17:30 Cloudy 78 25.6 58 14.4 50 50 NW 7 11 29.83 1010 10 16.0934 0 0.0254
5:46 pm 17:46 Cloudy with Thunderstorms 77 25 61 16 57 57 N 7 11 29.84 1011 10 16.0934 0 0.0254
5:52 pm 17:52 Cloudy with Thunderstorms 76 24.4 62 16.7 62 62 NNW 7 11 29.86 1011 10 16.0934 0 0.0254
6:11 pm 18:11 Cloudy 75 23.9 61 16.1 62 62 N 5 7 29.85 1011 10 16.0934 0 0
6:52 pm 18:52 Cloudy 75 23.9 63 17.2 66 66 Calm 29.86 1011 10 16.0934 0 0
7:52 pm 19:52 Cloudy 75 23.9 66 18.9 74 74 Calm 29.85 1011 10 16.0934 0 0
8:52 pm 20:52 Mostly Cloudy 73 22.8 64 17.8 74 74 S 3 6 29.87 1011 10 16.0934 0 0
10:52 pm 22:52 Mostly Cloudy 71 21.7 63 17.2 76 76 Calm 29.89 1012 10 16.0934 0 0
11:52 pm 23:52 Mostly Clear 68 20 62 16.7 81 81 S 5 7 29.89 1012 10 16.0934 0 0

Powered by AerisWeather